Regional Weather Roundup
Issued by NWS Sterling, VA

Home | Current Version | Previous Version | Graphics & Text | Print | Product List | Glossary On
Versions: 1 2 3 4 5 6 7 8 9 10 11 12 13 14 15 16 17 18 19 20 21 22 23 24 25 26 27 28 29 30 31 32 33 34 35 36 37 38 39 40 41 42 43 44 45 46 47 48 49 50
000
ASUS41 KLWX 051410
RWRLWX

REGIONAL WEATHER ROUNDUP
NATIONAL WEATHER SERVICE BALTIMORE MD/WASHINGTON DC
1000 AM EDT TUE MAY 05 2015

Note: "FAIR" indicates few or no clouds below 12,000 feet
with no significant weather and/or obstructions to visibility.
 TC=TEMPERATURE CELSIUS

 * =Non NWS site. Station does not report precipitation (e.g. rain,
    snow, etc.), thunder, or fog.

DCZ001-MDZ009-015-VAZ040>042-051-053>054-051500-
WASHINGTON METRO

CITY           SKY/WX    TMP DP  RH WIND       PRES   REMARKS
WASHINGTON NAT MOSUNNY   72  59  63 S6        30.27S
DULLES         CLOUDY    71  55  56 CALM      30.27S
ANDREWS AFB    MOSUNNY   75  58  54 W5        30.26S
FT BELVOIR     SUNNY     73  58  60 VRB2      30.27S
QUANTICO       MOSUNNY   68  59  73 S10       30.28S
COLLEGE PARK*  MOSUNNY   70  55  60 CALM      30.26S
LEESBURG*      MOSUNNY   75  61  60 CALM      30.28R
MANASSAS*      SUNNY     72  59  64 S6        30.27S
GAITHERSBURG*  PTSUNNY   73  55  53 CALM      30.30S

$$

MDZ006>007-011-014-051500-
BALTIMORE METRO

CITY           SKY/WX    TMP DP  RH WIND       PRES   REMARKS
BWI AIRPORT    MOSUNNY   74  56  53 SW5       30.25S
MD SCIENCE CTR   N/A     75  57  53 MISG      30.25S
MARTIN STATE   MOSUNNY   72  61  68 S5        30.27
ANNAPOLIS      SUNNY     73  54  51 W3        30.25S
FORT MEADE*    MOSUNNY   73  55  53 S3        30.28S

$$

MDZ012-015-019>023-051500-
MARYLAND EASTERN SHORE

CITY           SKY/WX    TMP DP  RH WIND       PRES   REMARKS
OCEAN CITY     SUNNY     72  55  55 W15G22    30.27F
SALISBURY      SUNNY     72  56  57 SW12G21   30.28S
BAY BRIDGE AP*   N/A    N/A N/A N/A SW3       30.26S
CAMBRIDGE*     SUNNY     72  55  56 W5        30.27S
EASTON*        SUNNY     72  59  64 SW10      30.30F

$$

MDZ017>025-051500-
SOUTHERN MARYLAND

CITY           SKY/WX    TMP DP  RH WIND       PRES   REMARKS
PATUXENT RIVER MOSUNNY   71  57  61 W10       30.27S
ST INIGOES     SUNNY     70  57  63 SW10      30.28S
LEONARDTOWN*   SUNNY     70  55  60 SW10      30.29S

$$

MDZ003>005-051500-
NORTH CENTRAL MARYLAND

CITY           SKY/WX    TMP DP  RH WIND       PRES   REMARKS
FREDERICK*     CLOUDY    73  52  46 CALM      30.29R
HAGERSTOWN APT PTSUNNY   71  57  61 CALM      30.27R
WESTMINSTER*   PTSUNNY   72  55  56 NW5       30.27S

$$

MDZ501>502-051500-
WESTERN MARYLAND

CITY           SKY/WX    TMP DP  RH WIND       PRES   REMARKS
OAKLAND*       CLOUDY    66  54  63 W8        30.34F
CUMBERLAND*    CLOUDY    68  54  60 CALM      30.32R

$$

VAZ025>031-051500-
SHENANDOAH VALLEY

CITY           SKY/WX    TMP DP  RH WIND       PRES   REMARKS
WINCHESTER*    MOSUNNY   72  48  43 SW7       30.28S
FRONT ROYAL*   FAIR      68  55  64 SW3       30.28R
LURAY*         FAIR      70  59  68 S3        30.29S
NEW MARKET*    CLOUDY    68  55  64 SW5       30.28S
STAUNTON*      MOSUNNY   68  55  63 S3        30.32S
WAYNESBORO*    FAIR      72  55  55 SW3       30.31S

$$

WVZ021-048>050-054>055-051500-
EASTERN WEST VIRGINIA PANHANDLE

CITY           SKY/WX    TMP DP  RH WIND       PRES   REMARKS
MARTINSBURG    PTSUNNY   70  57  63 CALM      30.27S
PETERSBURG*    MOSUNNY   69  51  54 CALM      30.29S

$$

VAZ036>039-050-051500-
CENTRAL FOOTHILLS

CITY           SKY/WX    TMP DP  RH WIND       PRES   REMARKS
CHARLOTTESVILL MOSUNNY   72  57  59 SW3       30.28R
CULPEPER*      NOT AVBL
ORANGE*        MOSUNNY   72  59  64 CALM      30.29S
GORDONSVILLE*  FAIR      70  58  64 SW3       30.28S
WARRENTON*     FAIR      74  60  62 CALM      30.27S

$$

VAZ055>057-051500-
NORTH AND CENTRAL PIEDMONT

CITY           SKY/WX    TMP DP  RH WIND       PRES   REMARKS
FREDERICKSBRG* SUNNY     74  59  59 S5        30.27S
STAFFORD*      SUNNY     71  55  56 SW3       30.31S

$$

NCZ024-NYZ072-PAZ021-071-VAZ022-071-051500-
OTHER REGIONAL OBSERVATIONS

CITY           SKY/WX    TMP DP  RH WIND       PRES   REMARKS
NEW YORK CITY  CLOUDY    73  51  46 VRB3      30.23S
PHILADELPHIA   PTSUNNY   72  55  55 SW6       30.24S
PITTSBURGH     CLOUDY    61  60  97 SE5       30.29F FOG
ROANOKE        SUNNY     73  53  49 W8        30.34S
RICHMOND       MOSUNNY   71  56  58 SW12      30.30S
RALEIGH        MOSUNNY   72  55  55 SW13      30.36S

$$

ANZ530>537-051500-
MARINE OBSERVATIONS

STATION/POSITION TIME  TEMP    WIND        PRES
                       AIR SEA DIR/SP/G
                 (UTC) (F)     (DEG/KT/KT) (MB)
THOMAS PT LIGHT  1400   64 58  170/  7/  7 1025.3R
BALT KEY BRIDGE  1300   68     230/  5/  5 1024.1R
COVE POINT       1300   67     260/ 14/ 19 1025.5R
LEWISETTA        1300   68 66              1025.0F
SOLOMONS ISLAND  1300      60                N/A
PINEY POINT      1300          270/  7/  8   N/A

$$




USA.gov is the U.S. government's official web portal to all federal, state and local government web resources and services.